Погода в Щомах

Украина / Сумская область     50°20′04″N   34°35′23″E
темп.,
°C
ветер,
м/с
пор.,
м/с
влажн.,
%
обл.,
%
осадки,
мм/ч
давл.,
гПа
погр.,
м
21 июня, пн
пн2100:00+18всв513866 0.0 1015294
03:00+17всв5128969 1.2 1014238
06:00+18всв5118585 0.0 1014252
09:00+23в6127140 0.1 1014490
12:00+26вюв7136081 0.0 1014939
15:00+28вюв7115896 0.0 10141147
18:00+26вюв6126512 0.0 1015602
21:00+21в411840 0.0 1015215
22 июня, вт
вт2200:00+19в4108472 0.0 1015174
03:00+18всв413781 0.0 1015222
06:00+17в411803 0.0 1015202
09:00+23в6136777 0.0 1015448
12:00+26вюв6115598 0.0 1016821
15:00+28вюв6105677 0.0 10151112
18:00+26в397197 0.0 1015333
21:00+22всв49855 0.0 1016142
23 июня, ср
ср2300:00+20всв4109257 0.0 1015182
03:00+20всв5148799 0.0 1014261
06:00+20всв5128188 0.0 1014261
09:00+24в6106981 0.0 1015438
12:00+27вюв5857100 0.0 1016719
15:00+29в595697 0.0 1015972
18:00+28вюв4767100 0.0 1016471
21:00+23в4780100 0.0 1016107
24 июня, чт
чт2400:00+20всв367287 0.0 101683
03:00+20всв47825 0.0 1016106
06:00+20всв49855 0.0 1016167
09:00+25в586882 0.0 1016342
12:00+29вюв465349 0.0 1016715
15:00+31вюв464742 0.0 10161086
18:00+30в356388 0.0 1016260
21:00+24вюв337985 0.1 101629
25 июня, пт
пт2500:00+21в2278100 0.0 101613
03:00+21св2288100 0.0 101616
06:00+21всв3788100 0.0 1016153
09:00+24всв367399 0.0 1016249
12:00+29в445820 0.0 10151055
15:00+30в335179 0.0 10151543
18:00+29юв356292 0.0 1014317
21:00+24всв22745 0.3 101311